Home   Weather   Brisbane   Past weeks

Flag for Australia Past Weather in Brisbane, Queensland, Australia — Yesterday and Last 2 Weeks

77 °F

Passing clouds.

Feels Like: 79 °F
Forecast: 62 / 85 °F
Wind: 15 mph from Northeast

Location: Brisbane Airport M. O

Current Time: Oct 26, 2016 at 10:38:54 AM

Latest Report: Oct 26, 2016 at 10:00 AM

Visibility: N/A

Pressure: 30.12 "Hg

Humidity: 51%

Dew Point: 57 °F

Location of BrisbaneLocation

Past Weather in Brisbane — Graph


Brisbane Temperature Yesterday

Maximum temperature yesterday: 77 °F (at 12:00 PM)
Minimum temperature yesterday: 55 °F (at 5:30 AM)
Average temperature yesterday: 69 °F

High & Low Weather Summary for the Past Weeks

High81 °F (Oct 11, 11:00 AM)100% (Oct 17, 5:30 PM)30.24 "Hg (Oct 17, 5:30 PM)
Low52 °F (Oct 16, 5:00 AM)28% (Oct 23, 7:00 PM)29.77 "Hg (Oct 17, 3:00 PM)
Average68 °F63%30.04 "Hg
* Reported Oct 11 9:00 AM — Oct 26 9:00 AM, Brisbane, Weather by CustomWeather, © 2016

Note: Actual official high and low records may vary slightly from our data, if they occured in-between our weather recording intervals... More about our weather records


Brisbane Weather History for the Previous 24 Hours

Scroll right to see more
Time TempWeatherWind HumidityBarometerVisibility
9:00 AM
Wed, Oct 26
75 °FPassing clouds.12 mph50%30.12 "HgN/A
8:30 AM73 °FPassing clouds.10 mph53%30.15 "HgN/A
8:00 AM73 °FSunny.12 mph53%30.15 "Hg10 mi
7:30 AM72 °FSunny.10 mph57%30.15 "Hg10 mi
7:00 AM70 °FSunny.8 mph60%30.12 "Hg10 mi
6:30 AM66 °FSunny.7 mph68%30.12 "Hg10 mi
6:00 AM63 °FSunny.6 mph83%30.12 "Hg10 mi
5:30 AM61 °FSunny.5 mph83%30.09 "Hg10 mi
5:00 AM59 °FClear.No wind88%30.09 "Hg10 mi
4:30 AM59 °FClear.3 mph88%30.09 "Hg10 mi
4:00 AM61 °FClear.3 mph83%30.09 "Hg10 mi
3:00 AM61 °FClear.5 mph83%30.07 "Hg10 mi
2:30 AM61 °FClear.6 mph83%30.09 "Hg10 mi
2:00 AM63 °FClear.No wind77%30.09 "Hg10 mi
1:30 AM63 °FClear.1 mph77%30.09 "Hg10 mi
1:00 AM63 °FClear.5 mph77%30.09 "Hg10 mi
12:00 AM64 °FClear.6 mph73%30.09 "Hg10 mi
11:30 PM
Tue, Oct 25
66 °FClear.6 mph68%30.09 "Hg10 mi
11:00 PM66 °FClear.10 mph73%30.12 "Hg10 mi
10:30 PM68 °FClear.10 mph69%30.09 "Hg10 mi
10:00 PM68 °FClear.14 mph64%30.09 "Hg10 mi
9:30 PM70 °FClear.17 mph64%30.09 "Hg10 mi
9:00 PM70 °FClear.17 mph64%30.09 "Hg10 mi
8:30 PM70 °FClear.17 mph60%30.09 "Hg10 mi
8:00 PM70 °FClear.17 mph60%30.09 "Hg10 mi
7:30 PM70 °FClear.17 mph64%30.07 "Hg10 mi
7:00 PM70 °FClear.17 mph64%30.07 "Hg10 mi
6:30 PM70 °FClear.18 mph64%30.07 "Hg10 mi
6:00 PM70 °FSunny.18 mph64%30.07 "Hg10 mi
5:00 PM72 °FPassing clouds.20 mph61%30.04 "HgN/A
4:30 PM73 °FPassing clouds.20 mph61%30.04 "HgN/A
4:00 PM73 °FPassing clouds.21 mph61%30.04 "HgN/A
3:30 PM73 °FPassing clouds.20 mph61%30.04 "HgN/A
3:00 PM75 °FPassing clouds.18 mph57%30.04 "HgN/A
2:30 PM75 °FPassing clouds.18 mph54%30.04 "HgN/A
2:00 PM75 °FPassing clouds.18 mph54%30.04 "HgN/A
1:30 PM77 °FPassing clouds.21 mph51%30.04 "HgN/A
1:00 PM75 °FPassing clouds.20 mph50%30.07 "HgN/A
12:30 PM77 °FSunny.18 mph47%30.07 "Hg10 mi
12:00 PM77 °FSunny.17 mph44%30.07 "Hg10 mi
11:00 AM75 °FSunny.13 mph47%30.09 "Hg10 mi
10:30 AM75 °FSunny.10 mph39%30.09 "Hg10 mi
10:00 AM75 °FSunny.9 mph44%30.12 "Hg10 mi
Weather by CustomWeather, © 2016

See weather overviewHow to use our weather pages